TimeEST,TemperatureF,Dew PointF,Humidity,Sea Level PressureIn,VisibilityMPH,Wind Direction,Wind SpeedMPH,Gust SpeedMPH,PrecipitationIn,Events,Conditions,WindDirDegrees,DateUTC
12:06 AM,75.2,73.4,94,30.03,10.0,SSE,9.2,-,N/A,,Mostly Cloudy,160,2012-12-09 05:06:00
12:53 AM,75.9,73.9,94,30.03,10.0,SE,9.2,-,N/A,,Mostly Cloudy,140,2012-12-09 05:53:00
1:20 AM,75.2,73.4,94,30.02,10.0,SSE,8.1,-,N/A,,Scattered Clouds,160,2012-12-09 06:20:00
1:53 AM,75.0,73.9,96,30.02,10.0,South,4.6,-,N/A,,Partly Cloudy,170,2012-12-09 06:53:00
2:16 AM,75.2,73.4,94,30.02,10.0,SSE,5.8,-,N/A,,Mostly Cloudy,160,2012-12-09 07:16:00
2:43 AM,75.2,73.4,94,30.01,10.0,SE,8.1,-,N/A,,Mostly Cloudy,140,2012-12-09 07:43:00
2:53 AM,75.9,73.9,94,30.01,10.0,SE,8.1,-,0.00,Rain,Light Rain,140,2012-12-09 07:53:00
3:53 AM,75.0,73.9,96,30.02,10.0,South,3.5,-,0.00,,Scattered Clouds,170,2012-12-09 08:53:00
4:53 AM,73.9,73.9,100,30.02,10.0,WNW,3.5,-,0.00,,Partly Cloudy,300,2012-12-09 09:53:00
5:53 AM,71.1,71.1,100,30.04,10.0,NNW,5.8,-,N/A,,Partly Cloudy,330,2012-12-09 10:53:00
6:53 AM,70.0,70.0,100,30.05,10.0,Calm,Calm,-,N/A,,Clear,0,2012-12-09 11:53:00
7:53 AM,71.1,71.1,100,30.07,10.0,Calm,Calm,-,0.01,,Scattered Clouds,0,2012-12-09 12:53:00
8:53 AM,73.0,73.0,100,30.09,10.0,NNW,3.5,-,N/A,,Mostly Cloudy,340,2012-12-09 13:53:00
9:53 AM,78.1,73.0,84,30.10,10.0,Calm,Calm,-,N/A,,Scattered Clouds,0,2012-12-09 14:53:00
10:53 AM,78.1,73.0,84,30.09,10.0,WNW,3.5,-,N/A,,Mostly Cloudy,300,2012-12-09 15:53:00
11:53 AM,79.0,73.0,82,30.07,10.0,ESE,4.6,-,N/A,,Mostly Cloudy,120,2012-12-09 16:53:00
12:53 PM,80.1,73.0,79,30.04,10.0,SSE,9.2,-,N/A,,Scattered Clouds,150,2012-12-09 17:53:00
1:53 PM,80.1,73.9,81,30.01,10.0,SSE,9.2,-,N/A,,Mostly Cloudy,150,2012-12-09 18:53:00
2:53 PM,80.1,73.0,79,30.01,10.0,SSE,9.2,-,N/A,,Clear,160,2012-12-09 19:53:00
3:53 PM,79.0,73.9,84,30.00,10.0,South,10.4,-,N/A,,Clear,170,2012-12-09 20:53:00
4:53 PM,78.1,73.9,87,30.01,10.0,SSE,9.2,-,N/A,,Clear,150,2012-12-09 21:53:00
5:53 PM,75.9,75.0,97,30.02,10.0,SSE,8.1,-,N/A,,Clear,150,2012-12-09 22:53:00
6:53 PM,75.9,75.0,97,30.04,10.0,SSE,5.8,-,N/A,,Clear,160,2012-12-09 23:53:00
7:53 PM,75.9,75.0,97,30.04,10.0,SSE,5.8,-,N/A,,Clear,160,2012-12-10 00:53:00
8:53 PM,75.9,75.0,97,30.04,10.0,SSE,6.9,-,N/A,,Clear,150,2012-12-10 01:53:00
9:53 PM,75.0,75.0,100,30.04,10.0,SSE,8.1,-,N/A,,Clear,160,2012-12-10 02:53:00
10:53 PM,75.0,75.0,100,30.05,10.0,SSE,4.6,-,N/A,,Clear,160,2012-12-10 03:53:00
11:41 PM,75.2,75.2,100,30.04,10.0,South,6.9,-,N/A,,Mostly Cloudy,180,2012-12-10 04:41:00
11:49 PM,75.2,75.2,100,30.04,10.0,South,4.6,-,N/A,,Scattered Clouds,190,2012-12-10 04:49:00
11:53 PM,75.0,75.0,100,30.04,10.0,South,4.6,-,N/A,,Partly Cloudy,190,2012-12-10 04:53:00